ARIANE 5 R/B, 52906

Orbit data source: Space-Track

ARIANE 5 R/B, 52906 is space debris in HEO originally from a launch on Wed, 22 Jun 2022 UTC launched from the French Guiana (FRGUI). Debris objects in space refer to the collection of defunct objects orbiting the Earth. Examples of debris include non-operational satellites, rocket bodies, and fragments generated from explosions, collisions, or faulty payload assembly.

Loading next visibility...
Identifier
52906, 2022-067D
Orbit
HEO
Country
Flag of FRFR
Related business
Manufacturer
ArianeGroup
Mission
Spacecraft
Bus & Motor
ESC-A, Unknown motor
Mass
~5,000 kg wet, ~5,000 kg dry
Launch date (UTC)
Icon of a cake. It is the launch day of the satellite!2022-06-22 (4 years ago)
Launch vehicle
Unknown
Launch site
French Guiana (FRGUI)
Object type
Payload
Rocket body
Debris
Shape & HBR
Cyl + 1 Nozzle, 3.5 m
Radar Cross Section
41.627 m², Large (>1 m²)

Expand to show TLE details & history
Last TLE update: 2 days ago

TLE from 2 days ago
0 ARIANE 5 R/B
1 52906U 22067D   26171.16194409  .00003036  00000-0  97982-3 0  9990
2 52906   5.6902 158.7993 7172854 336.3538   2.6350  2.41287069 34285
Epoch: 2026-06-20T03:53Z
TLE epoch observation values (Epoch: 2026-06-20T03:53:11.969Z)
Latitude
0.00001°
Longitude
-167.8127°
Altitude
503.687 km
Speed
9.942 km/s
True Right ascension
10h 35m 28s
True Declination
0° 00' 00"
Sunlit
Object was in daylight at epoch
Visualization orbit readout
Latitude
Unknown
Longitude
Unknown
Altitude
Unknown
Speed
Unknown
Apparent Right ascension
Unknown
Apparent Declination
Unknown
Sunlit
N/A
Visualization observer readout
Local Sidereal Time
21:29:56
Azimuth
Unknown
Elevation
Unknown
Doppler factor
Unknown
Orbital elements
Apogee altitude
33,954.467 km
Perigee altitude
261.77 km
Semi-major axis
23,486.256 km
Eccentricity
0.71729
Inclination
5.6902°
RAAN
158.7993°
Arg. of periapsis
336.3538°
True anomaly
22.47883°
Mean anomaly
2.635°
Eccentric anomaly
9.21954°
Mean motion
0.60301 °/min
Orbital period
597.01 mins
BSTAR
0.00097982
Loading maneuver chart data...
Computing Atmospheric mass density...
Loading historical data...
Loading historical data...
Loading historical data...
Loading historical data...
Loading historical data...
Loading historical data...
Loading historical data...
Other satellites on launch #67 in the year 2022 (2022-06-22 UTC)

Documentation

Showing up to 5 results
|